YAOGAN 21               
1 40143U 14053A   19259.80524078  .00000419  00000-0  20488-4 0  9995
2 40143  97.4768 323.2658 0018255 148.9837 348.6884 15.23545669279583
TIANTUO 2               
1 40144U 14053B   19259.79566763  .00000427  00000-0  15092-4 0  9995
2 40144  97.2695 342.1410 0010271 205.2447 303.6958 15.34447972280935